Wetterdaten: Woche 13.11.17 - 19.11.17 (KW46)
Datum Zeit Temp. I. Temp. A. Feuchte I. Feuchte A. Luftdruck Regen Wind Richtung Sonnenschein UV Solar Taupunkt Windchill Windben
13.11.2017 00:00 23,9 C 0,7 C 61 % 97 % 1004,6 hPa 0,0 l/m 3,0 km/h (1 Bft) W-SW 0,00 h 0,0 UV-I 0 W/m 0,3 C 0,7 C 5,5 km/h (1 Bft)
13.11.2017 01:00 23,7 C 0,6 C 62 % 97 % 1005,3 hPa 0,0 l/m 3,7 km/h (1 Bft) W-SW 0,00 h 0,0 UV-I 0 W/m 0,1 C 0,5 C 6,5 km/h (2 Bft)
13.11.2017 02:00 23,5 C 0,4 C 63 % 97 % 1005,6 hPa 0,0 l/m 1,1 km/h (1 Bft) W 0,00 h 0,0 UV-I 0 W/m -0,0 C 0,4 C 2,6 km/h (1 Bft)
13.11.2017 03:00 23,4 C 0,4 C 63 % 97 % 1006,2 hPa 0,0 l/m 1,0 km/h (0 Bft) W 0,00 h 0,0 UV-I 0 W/m 0,0 C 0,4 C 1,8 km/h (1 Bft)
13.11.2017 04:00 23,3 C 0,6 C 62 % 97 % 1007,3 hPa 0,0 l/m 0,0 km/h (0 Bft) N 0,00 h 0,0 UV-I 0 W/m 0,1 C 0,6 C 0,0 km/h (0 Bft)
13.11.2017 05:00 23,2 C 0,6 C 62 % 97 % 1008,2 hPa 0,0 l/m 0,0 km/h (0 Bft) N 0,00 h 0,0 UV-I 0 W/m 0,2 C 0,6 C 0,0 km/h (0 Bft)
13.11.2017 06:00 23,4 C 0,7 C 61 % 97 % 1009,2 hPa 0,0 l/m 0,9 km/h (0 Bft) NW 0,00 h 0,0 UV-I 0 W/m 0,3 C 0,7 C 2,2 km/h (1 Bft)
13.11.2017 07:00 23,7 C 0,7 C 61 % 97 % 1010,2 hPa 0,0 l/m 1,3 km/h (1 Bft) N-NW 0,00 h 0,0 UV-I 5 W/m 0,3 C 0,7 C 2,9 km/h (1 Bft)
13.11.2017 08:00 23,8 C 0,7 C 60 % 97 % 1011,4 hPa 0,0 l/m 0,1 km/h (0 Bft) SW 0,00 h 0,0 UV-I 11 W/m 0,3 C 0,7 C 0,1 km/h (0 Bft)
13.11.2017 09:00 23,8 C 1,4 C 60 % 97 % 1012,5 hPa 0,0 l/m 0,4 km/h (0 Bft) W-NW 0,43 h 0,6 UV-I 145 W/m 1,0 C 1,4 C 1,2 km/h (1 Bft)
13.11.2017 10:00 24,0 C 2,8 C 59 % 94 % 1013,0 hPa 0,0 l/m 1,8 km/h (1 Bft) W-NW 0,72 h 0,7 UV-I 191 W/m 1,9 C 2,7 C 3,9 km/h (1 Bft)
13.11.2017 11:00 24,2 C 2,3 C 59 % 95 % 1013,4 hPa 0,0 l/m 1,8 km/h (1 Bft) W 0,20 h 0,7 UV-I 107 W/m 1,5 C 2,3 C 4,9 km/h (1 Bft)
13.11.2017 12:00 24,2 C 3,4 C 58 % 93 % 1013,6 hPa 0,0 l/m 5,3 km/h (1 Bft) W-NW 0,42 h 0,7 UV-I 178 W/m 2,4 C 3,0 C 9,9 km/h (2 Bft)
13.11.2017 13:00 21,5 C 3,2 C 51 % 91 % 1014,3 hPa 0,0 l/m 3,0 km/h (1 Bft) NW 0,00 h 0,5 UV-I 72 W/m 1,9 C 2,9 C 5,1 km/h (1 Bft)
13.11.2017 14:00 17,9 C 3,2 C 52 % 92 % 1014,9 hPa 0,0 l/m 1,4 km/h (1 Bft) NW 0,05 h 0,0 UV-I 62 W/m 2,1 C 3,2 C 4,0 km/h (1 Bft)
13.11.2017 15:00 17,6 C 3,2 C 52 % 91 % 1015,9 hPa 0,0 l/m 3,3 km/h (1 Bft) W-NW 0,00 h 0,0 UV-I 29 W/m 2,0 C 3,0 C 6,2 km/h (2 Bft)
13.11.2017 16:00 17,2 C 2,9 C 53 % 92 % 1016,8 hPa 0,0 l/m 1,7 km/h (1 Bft) W-NW 0,00 h 0,0 UV-I 10 W/m 1,7 C 2,9 C 3,4 km/h (1 Bft)
13.11.2017 17:00 16,8 C 2,5 C 54 % 93 % 1017,9 hPa 0,0 l/m 0,5 km/h (0 Bft) W 0,00 h 0,0 UV-I 0 W/m 1,4 C 2,5 C 1,4 km/h (1 Bft)
13.11.2017 18:00 16,8 C 2,1 C 54 % 94 % 1018,8 hPa 0,0 l/m 0,5 km/h (0 Bft) W-NW 0,00 h 0,0 UV-I 0 W/m 1,2 C 2,1 C 1,5 km/h (1 Bft)
13.11.2017 19:00 16,4 C 2,0 C 54 % 94 % 1019,7 hPa 0,0 l/m 0,0 km/h (0 Bft) N 0,00 h 0,0 UV-I 0 W/m 1,1 C 2,0 C 0,0 km/h (0 Bft)
13.11.2017 20:00 16,2 C 1,7 C 55 % 94 % 1020,3 hPa 0,0 l/m 0,0 km/h (0 Bft) N 0,00 h 0,0 UV-I 0 W/m 0,9 C 1,7 C 0,0 km/h (0 Bft)
13.11.2017 21:00 16,0 C 1,0 C 56 % 94 % 1021,1 hPa 0,0 l/m 0,0 km/h (0 Bft) N 0,00 h 0,0 UV-I 0 W/m 0,2 C 1,0 C 0,0 km/h (0 Bft)
13.11.2017 22:00 18,0 C 0,8 C 61 % 95 % 1021,5 hPa 0,0 l/m 0,0 km/h (0 Bft) N 0,00 h 0,0 UV-I 0 W/m 0,1 C 0,8 C 0,0 km/h (0 Bft)
13.11.2017 23:00 21,8 C 0,3 C 60 % 95 % 1021,8 hPa 0,0 l/m 0,0 km/h (0 Bft) N 0,00 h 0,0 UV-I 0 W/m -0,4 C 0,3 C 0,0 km/h (0 Bft)
14.11.2017 00:00 22,6 C 0,0 C 60 % 95 % 1022,0 hPa 0,0 l/m 0,0 km/h (0 Bft) N 0,00 h 0,0 UV-I 0 W/m -0,6 C 0,0 C 0,1 km/h (0 Bft)
14.11.2017 01:00 22,8 C 0,1 C 60 % 96 % 1022,1 hPa 0,0 l/m 0,0 km/h (0 Bft) N 0,00 h 0,0 UV-I 0 W/m -0,4 C 0,1 C 0,0 km/h (0 Bft)
14.11.2017 02:00 22,9 C 0,1 C 61 % 96 % 1022,5 hPa 0,0 l/m 0,0 km/h (0 Bft) N 0,00 h 0,0 UV-I 0 W/m -0,4 C 0,1 C 0,0 km/h (0 Bft)
14.11.2017 03:00 22,9 C 0,3 C 60 % 96 % 1022,9 hPa 0,0 l/m 0,0 km/h (0 Bft) N 0,00 h 0,0 UV-I 0 W/m -0,3 C 0,3 C 0,0 km/h (0 Bft)
14.11.2017 04:00 22,9 C -0,1 C 59 % 96 % 1023,3 hPa 0,0 l/m 0,2 km/h (0 Bft) S 0,00 h 0,0 UV-I 0 W/m -0,6 C -0,1 C 0,7 km/h (0 Bft)
14.11.2017 05:00 22,8 C -0,7 C 59 % 96 % 1023,9 hPa 0,0 l/m 0,5 km/h (0 Bft) W-SW 0,00 h 0,0 UV-I 0 W/m -1,3 C -0,7 C 1,2 km/h (1 Bft)
14.11.2017 06:00 23,2 C -0,6 C 58 % 96 % 1024,7 hPa 0,0 l/m 0,8 km/h (0 Bft) S-SO 0,00 h 0,0 UV-I 0 W/m -1,2 C -0,6 C 1,9 km/h (1 Bft)
14.11.2017 07:00 23,4 C -0,4 C 58 % 97 % 1025,4 hPa 0,0 l/m 0,0 km/h (0 Bft) N 0,00 h 0,0 UV-I 5 W/m -0,8 C -0,4 C 0,0 km/h (0 Bft)
14.11.2017 08:00 23,4 C -0,1 C 57 % 97 % 1026,2 hPa 0,0 l/m 0,1 km/h (0 Bft) S-SO 0,00 h 0,0 UV-I 20 W/m -0,5 C -0,1 C 0,3 km/h (0 Bft)
14.11.2017 09:00 23,4 C 0,7 C 56 % 97 % 1026,3 hPa 0,0 l/m 0,3 km/h (0 Bft) SO 0,43 h 0,7 UV-I 129 W/m 0,2 C 0,7 C 0,6 km/h (0 Bft)
14.11.2017 10:00 23,6 C 1,3 C 55 % 96 % 1026,6 hPa 0,0 l/m 0,0 km/h (0 Bft) N 0,33 h 0,7 UV-I 132 W/m 0,7 C 1,3 C 0,1 km/h (0 Bft)
14.11.2017 11:00 23,6 C 2,0 C 54 % 95 % 1026,5 hPa 0,0 l/m 0,1 km/h (0 Bft) S 0,90 h 1,1 UV-I 225 W/m 1,3 C 2,0 C 0,5 km/h (0 Bft)
14.11.2017 12:00 23,7 C 2,4 C 53 % 93 % 1026,5 hPa 0,0 l/m 1,9 km/h (1 Bft) SW 0,73 h 0,9 UV-I 180 W/m 1,4 C 2,4 C 4,6 km/h (1 Bft)
14.11.2017 13:00 23,7 C 2,7 C 53 % 93 % 1026,2 hPa 0,0 l/m 2,2 km/h (1 Bft) SW 0,02 h 0,6 UV-I 94 W/m 1,7 C 2,7 C 5,0 km/h (1 Bft)
14.11.2017 14:00 23,8 C 2,9 C 53 % 92 % 1026,2 hPa 0,0 l/m 1,7 km/h (1 Bft) S 0,00 h 0,5 UV-I 63 W/m 1,8 C 2,9 C 4,0 km/h (1 Bft)
14.11.2017 15:00 23,8 C 2,9 C 54 % 93 % 1026,3 hPa 0,0 l/m 0,3 km/h (0 Bft) S-SO 0,00 h 0,0 UV-I 16 W/m 1,8 C 2,9 C 1,0 km/h (0 Bft)
14.11.2017 16:00 23,8 C 2,7 C 54 % 94 % 1026,2 hPa 0,0 l/m 1,6 km/h (1 Bft) W-SW 0,00 h 0,0 UV-I 5 W/m 1,8 C 2,7 C 3,7 km/h (1 Bft)
14.11.2017 17:00 23,8 C 2,2 C 54 % 92 % 1026,6 hPa 0,0 l/m 3,6 km/h (1 Bft) W-SW 0,00 h 0,0 UV-I 0 W/m 1,1 C 1,9 C 7,6 km/h (2 Bft)
14.11.2017 18:00 23,8 C 2,2 C 55 % 92 % 1026,9 hPa 0,0 l/m 1,2 km/h (1 Bft) S-SW 0,00 h 0,0 UV-I 0 W/m 1,0 C 2,2 C 3,1 km/h (1 Bft)
14.11.2017 19:00 23,8 C 1,9 C 56 % 92 % 1027,5 hPa 0,0 l/m 2,0 km/h (1 Bft) S 0,00 h 0,0 UV-I 0 W/m 0,7 C 1,9 C 4,5 km/h (1 Bft)
14.11.2017 20:00 23,9 C 1,9 C 56 % 93 % 1028,0 hPa 0,0 l/m 1,1 km/h (1 Bft) S-SW 0,00 h 0,0 UV-I 0 W/m 0,9 C 1,9 C 2,6 km/h (1 Bft)
14.11.2017 21:00 23,9 C 1,8 C 57 % 94 % 1028,2 hPa 0,0 l/m 3,1 km/h (1 Bft) S 0,00 h 0,0 UV-I 0 W/m 1,0 C 1,8 C 6,0 km/h (2 Bft)
14.11.2017 22:00 24,0 C 1,4 C 57 % 95 % 1028,3 hPa 0,0 l/m 3,7 km/h (1 Bft) S 0,00 h 0,0 UV-I 0 W/m 0,7 C 1,2 C 7,1 km/h (2 Bft)
14.11.2017 23:00 24,0 C 1,1 C 58 % 96 % 1028,4 hPa 0,0 l/m 3,0 km/h (1 Bft) SW 0,00 h 0,0 UV-I 0 W/m 0,5 C 1,1 C 6,5 km/h (2 Bft)
15.11.2017 00:00 23,8 C 1,1 C 59 % 96 % 1028,2 hPa 0,0 l/m 2,9 km/h (1 Bft) S 0,00 h 0,0 UV-I 0 W/m 0,5 C 1,1 C 6,0 km/h (2 Bft)
15.11.2017 01:00 23,6 C 1,0 C 60 % 96 % 1028,3 hPa 0,0 l/m 2,9 km/h (1 Bft) S-SW 0,00 h 0,0 UV-I 0 W/m 0,4 C 1,0 C 5,8 km/h (2 Bft)
15.11.2017 02:00 23,4 C 0,9 C 60 % 97 % 1028,1 hPa 0,0 l/m 2,6 km/h (1 Bft) S 0,00 h 0,0 UV-I 0 W/m 0,5 C 0,9 C 5,3 km/h (1 Bft)
15.11.2017 03:00 23,3 C 0,9 C 61 % 97 % 1028,0 hPa 0,0 l/m 2,3 km/h (1 Bft) S 0,00 h 0,0 UV-I 0 W/m 0,5 C 0,9 C 4,6 km/h (1 Bft)
15.11.2017 04:00 23,2 C 0,8 C 60 % 97 % 1027,8 hPa 0,0 l/m 2,4 km/h (1 Bft) S 0,00 h 0,0 UV-I 0 W/m 0,4 C 0,8 C 4,9 km/h (1 Bft)
15.11.2017 05:00 23,1 C 0,7 C 60 % 97 % 1027,9 hPa 0,0 l/m 2,5 km/h (1 Bft) S 0,00 h 0,0 UV-I 0 W/m 0,3 C 0,7 C 5,0 km/h (1 Bft)
15.11.2017 06:00 23,4 C 0,6 C 59 % 97 % 1028,2 hPa 0,0 l/m 2,8 km/h (1 Bft) S 0,00 h 0,0 UV-I 0 W/m 0,2 C 0,6 C 5,2 km/h (1 Bft)
15.11.2017 07:00 23,6 C 0,5 C 58 % 97 % 1028,6 hPa 0,0 l/m 2,6 km/h (1 Bft) S 0,00 h 0,0 UV-I 9 W/m 0,1 C 0,5 C 5,1 km/h (1 Bft)
15.11.2017 08:00 19,3 C 0,6 C 51 % 97 % 1029,2 hPa 0,0 l/m 1,9 km/h (1 Bft) S 0,00 h 0,0 UV-I 26 W/m 0,2 C 0,6 C 4,1 km/h (1 Bft)
15.11.2017 09:00 13,7 C 0,6 C 55 % 97 % 1029,4 hPa 0,0 l/m 3,5 km/h (1 Bft) S 0,00 h 0,0 UV-I 54 W/m 0,2 C 0,6 C 6,2 km/h (2 Bft)
15.11.2017 10:00 18,5 C 0,9 C 61 % 97 % 1029,4 hPa 0,0 l/m 1,7 km/h (1 Bft) S-SO 0,00 h 0,5 UV-I 69 W/m 0,5 C 0,9 C 3,6 km/h (1 Bft)
15.11.2017 11:00 21,3 C 1,2 C 57 % 97 % 1029,1 hPa 0,0 l/m 1,3 km/h (1 Bft) S 0,00 h 0,6 UV-I 89 W/m 0,7 C 1,2 C 2,8 km/h (1 Bft)
15.11.2017 12:00 22,2 C 1,8 C 56 % 97 % 1028,6 hPa 0,0 l/m 0,0 km/h (0 Bft) SW 0,00 h 0,7 UV-I 113 W/m 1,3 C 1,8 C 0,3 km/h (0 Bft)
15.11.2017 13:00 22,7 C 2,3 C 55 % 95 % 1028,0 hPa 0,0 l/m 0,1 km/h (0 Bft) S-SO 0,00 h 0,6 UV-I 87 W/m 1,6 C 2,3 C 0,5 km/h (0 Bft)
15.11.2017 14:00 23,0 C 2,7 C 55 % 94 % 1027,8 hPa 0,0 l/m 0,0 km/h (0 Bft) S 0,00 h 0,5 UV-I 68 W/m 1,8 C 2,7 C 0,3 km/h (0 Bft)
15.11.2017 15:00 23,2 C 2,9 C 56 % 93 % 1027,8 hPa 0,0 l/m 0,1 km/h (0 Bft) W-SW 0,00 h 0,0 UV-I 24 W/m 1,8 C 2,9 C 0,3 km/h (0 Bft)
15.11.2017 16:00 23,3 C 2,7 C 56 % 93 % 1027,9 hPa 0,0 l/m 0,0 km/h (0 Bft) N 0,00 h 0,0 UV-I 5 W/m 1,7 C 2,7 C 0,0 km/h (0 Bft)
15.11.2017 17:00 23,3 C 2,6 C 56 % 94 % 1028,0 hPa 0,0 l/m 0,1 km/h (0 Bft) S 0,00 h 0,0 UV-I 0 W/m 1,7 C 2,6 C 0,4 km/h (0 Bft)
15.11.2017 18:00 23,4 C 2,4 C 57 % 95 % 1028,0 hPa 0,0 l/m 0,0 km/h (0 Bft) N 0,00 h 0,0 UV-I 0 W/m 1,6 C 2,4 C 0,0 km/h (0 Bft)
15.11.2017 19:00 23,4 C 2,5 C 56 % 95 % 1028,1 hPa 0,0 l/m 0,0 km/h (0 Bft) N 0,00 h 0,0 UV-I 0 W/m 1,7 C 2,5 C 0,0 km/h (0 Bft)
15.11.2017 20:00 23,5 C 2,6 C 56 % 95 % 1028,0 hPa 0,0 l/m 0,5 km/h (0 Bft) N 0,00 h 0,0 UV-I 0 W/m 1,9 C 2,6 C 1,5 km/h (1 Bft)
15.11.2017 21:00 23,6 C 2,7 C 56 % 96 % 1027,8 hPa 0,0 l/m 0,0 km/h (0 Bft) N 0,00 h 0,0 UV-I 0 W/m 2,1 C 2,7 C 0,0 km/h (0 Bft)
15.11.2017 22:00 23,7 C 2,9 C 56 % 96 % 1027,7 hPa 0,0 l/m 0,0 km/h (0 Bft) N 0,00 h 0,0 UV-I 0 W/m 2,3 C 2,9 C 0,0 km/h (0 Bft)
15.11.2017 23:00 23,8 C 3,1 C 56 % 96 % 1027,4 hPa 0,0 l/m 0,5 km/h (0 Bft) O-NO 0,00 h 0,0 UV-I 0 W/m 2,6 C 3,1 C 1,5 km/h (1 Bft)
16.11.2017 00:00 23,6 C 3,3 C 57 % 96 % 1027,1 hPa 0,0 l/m 0,4 km/h (0 Bft) O-NO 0,00 h 0,0 UV-I 0 W/m 2,7 C 3,3 C 1,3 km/h (1 Bft)
16.11.2017 01:00 23,2 C 3,4 C 58 % 96 % 1026,9 hPa 0,0 l/m 0,2 km/h (0 Bft) NO 0,00 h 0,0 UV-I 0 W/m 2,9 C 3,4 C 0,7 km/h (0 Bft)
16.11.2017 02:00 23,2 C 3,6 C 59 % 95 % 1026,4 hPa 0,0 l/m 3,1 km/h (1 Bft) O-NO 0,00 h 0,0 UV-I 0 W/m 2,9 C 3,4 C 7,7 km/h (2 Bft)
16.11.2017 03:00 23,2 C 3,5 C 59 % 95 % 1026,0 hPa 0,0 l/m 2,3 km/h (1 Bft) O-NO 0,00 h 0,0 UV-I 0 W/m 2,8 C 3,4 C 5,5 km/h (1 Bft)
16.11.2017 04:00 23,1 C 3,4 C 58 % 95 % 1026,0 hPa 0,0 l/m 2,4 km/h (1 Bft) O-NO 0,00 h 0,0 UV-I 0 W/m 2,7 C 3,4 C 5,1 km/h (1 Bft)
16.11.2017 05:00 23,1 C 3,3 C 58 % 95 % 1025,8 hPa 0,0 l/m 1,7 km/h (1 Bft) O-NO 0,00 h 0,0 UV-I 0 W/m 2,6 C 3,3 C 4,2 km/h (1 Bft)
16.11.2017 06:00 23,2 C 3,3 C 58 % 95 % 1025,8 hPa 0,0 l/m 1,5 km/h (1 Bft) O-NO 0,00 h 0,0 UV-I 0 W/m 2,6 C 3,2 C 4,3 km/h (1 Bft)
16.11.2017 07:00 23,5 C 3,3 C 57 % 95 % 1025,7 hPa 0,0 l/m 3,6 km/h (1 Bft) O-NO 0,00 h 0,0 UV-I 6 W/m 2,6 C 3,1 C 7,6 km/h (2 Bft)
16.11.2017 08:00 23,6 C 3,2 C 57 % 95 % 1025,7 hPa 0,0 l/m 1,7 km/h (1 Bft) O-NO 0,00 h 0,0 UV-I 26 W/m 2,5 C 3,2 C 3,9 km/h (1 Bft)
16.11.2017 09:00 23,6 C 3,4 C 56 % 94 % 1025,6 hPa 0,0 l/m 3,1 km/h (1 Bft) O-NO 0,00 h 0,5 UV-I 72 W/m 2,5 C 3,3 C 7,2 km/h (2 Bft)
16.11.2017 10:00 23,7 C 3,9 C 56 % 92 % 1025,5 hPa 0,0 l/m 2,3 km/h (1 Bft) O-NO 0,02 h 0,7 UV-I 98 W/m 2,8 C 3,9 C 5,8 km/h (2 Bft)
16.11.2017 11:00 24,1 C 5,1 C 55 % 87 % 1025,1 hPa 0,0 l/m 4,6 km/h (1 Bft) O-NO 0,65 h 1,0 UV-I 242 W/m 3,1 C 4,7 C 9,4 km/h (2 Bft)
16.11.2017 12:00 24,8 C 5,7 C 53 % 82 % 1024,2 hPa 0,0 l/m 1,8 km/h (1 Bft) O 0,98 h 1,0 UV-I 269 W/m 2,9 C 5,6 C 5,0 km/h (1 Bft)
16.11.2017 13:00 25,0 C 6,3 C 52 % 79 % 1023,6 hPa 0,0 l/m 0,6 km/h (0 Bft) O-SO 0,92 h 0,8 UV-I 200 W/m 2,9 C 6,3 C 2,1 km/h (1 Bft)
16.11.2017 14:00 24,8 C 6,0 C 52 % 80 % 1023,4 hPa 0,0 l/m 0,1 km/h (0 Bft) O-SO 0,13 h 0,5 UV-I 111 W/m 2,9 C 6,0 C 0,4 km/h (0 Bft)
16.11.2017 15:00 24,5 C 5,2 C 53 % 84 % 1023,1 hPa 0,0 l/m 0,0 km/h (0 Bft) N 0,00 h 0,0 UV-I 40 W/m 2,7 C 5,2 C 0,0 km/h (0 Bft)
16.11.2017 16:00 24,2 C 4,5 C 54 % 85 % 1023,0 hPa 0,0 l/m 0,0 km/h (0 Bft) N 0,00 h 0,0 UV-I 10 W/m 2,2 C 4,5 C 0,0 km/h (0 Bft)
16.11.2017 17:00 24,0 C 3,7 C 54 % 88 % 1023,4 hPa 0,0 l/m 0,0 km/h (0 Bft) N 0,00 h 0,0 UV-I 0 W/m 1,9 C 3,7 C 0,0 km/h (0 Bft)
16.11.2017 18:00 23,9 C 3,2 C 55 % 91 % 1023,6 hPa 0,0 l/m 0,0 km/h (0 Bft) N 0,00 h 0,0 UV-I 0 W/m 1,8 C 3,2 C 0,0 km/h (0 Bft)
16.11.2017 19:00 23,9 C 3,1 C 55 % 91 % 1023,6 hPa 0,0 l/m 0,0 km/h (0 Bft) N 0,00 h 0,0 UV-I 0 W/m 1,9 C 3,1 C 0,0 km/h (0 Bft)
16.11.2017 20:00 23,8 C 3,1 C 55 % 92 % 1023,7 hPa 0,0 l/m 0,0 km/h (0 Bft) N 0,00 h 0,0 UV-I 0 W/m 1,8 C 3,1 C 0,0 km/h (0 Bft)
16.11.2017 21:00 23,8 C 3,0 C 55 % 91 % 1023,7 hPa 0,0 l/m 0,0 km/h (0 Bft) N 0,00 h 0,0 UV-I 0 W/m 1,7 C 3,0 C 0,0 km/h (0 Bft)
16.11.2017 22:00 23,9 C 2,9 C 56 % 92 % 1023,8 hPa 0,0 l/m 0,0 km/h (0 Bft) N 0,00 h 0,0 UV-I 0 W/m 1,7 C 2,9 C 0,0 km/h (0 Bft)
16.11.2017 23:00 24,0 C 2,8 C 56 % 92 % 1023,8 hPa 0,0 l/m 0,0 km/h (0 Bft) N 0,00 h 0,0 UV-I 0 W/m 1,6 C 2,8 C 0,0 km/h (0 Bft)
17.11.2017 00:00 23,7 C 2,8 C 57 % 93 % 1023,9 hPa 0,0 l/m 0,0 km/h (0 Bft) N 0,00 h 0,0 UV-I 0 W/m 1,8 C 2,8 C 0,0 km/h (0 Bft)
17.11.2017 01:00 23,3 C 2,8 C 58 % 93 % 1023,9 hPa 0,0 l/m 0,4 km/h (0 Bft) W-SW 0,00 h 0,0 UV-I 0 W/m 1,8 C 2,8 C 1,3 km/h (1 Bft)
17.11.2017 02:00 23,3 C 2,7 C 58 % 92 % 1024,0 hPa 0,0 l/m 0,8 km/h (0 Bft) W-SW 0,00 h 0,0 UV-I 0 W/m 1,6 C 2,7 C 2,3 km/h (1 Bft)
17.11.2017 03:00 23,3 C 2,7 C 59 % 92 % 1024,1 hPa 0,0 l/m 1,2 km/h (1 Bft) SW 0,00 h 0,0 UV-I 0 W/m 1,5 C 2,7 C 3,0 km/h (1 Bft)
17.11.2017 04:00 23,3 C 2,4 C 58 % 94 % 1024,2 hPa 0,0 l/m 2,8 km/h (1 Bft) W-SW 0,00 h 0,0 UV-I 0 W/m 1,5 C 2,3 C 6,7 km/h (2 Bft)
17.11.2017 05:00 23,2 C 1,9 C 58 % 95 % 1024,8 hPa 0,0 l/m 4,2 km/h (1 Bft) W-SW 0,00 h 0,0 UV-I 0 W/m 1,2 C 1,7 C 8,8 km/h (2 Bft)
17.11.2017 06:00 23,3 C 1,7 C 58 % 96 % 1025,0 hPa 0,0 l/m 3,3 km/h (1 Bft) SW 0,00 h 0,0 UV-I 0 W/m 1,1 C 1,7 C 6,9 km/h (2 Bft)
17.11.2017 07:00 23,4 C 1,6 C 58 % 96 % 1025,4 hPa 0,0 l/m 3,8 km/h (1 Bft) SW 0,00 h 0,0 UV-I 0 W/m 1,0 C 1,5 C 6,7 km/h (2 Bft)
17.11.2017 08:00 23,6 C 1,6 C 57 % 96 % 1025,9 hPa 0,0 l/m 1,5 km/h (1 Bft) SW 0,00 h 0,0 UV-I 11 W/m 1,0 C 1,6 C 3,8 km/h (1 Bft)
17.11.2017 09:00 23,6 C 1,6 C 57 % 96 % 1026,2 hPa 0,0 l/m 2,1 km/h (1 Bft) S 0,00 h 0,0 UV-I 23 W/m 1,1 C 1,6 C 4,5 km/h (1 Bft)
17.11.2017 10:00 23,6 C 1,7 C 56 % 96 % 1026,4 hPa 0,0 l/m 2,3 km/h (1 Bft) S 0,00 h 0,0 UV-I 29 W/m 1,2 C 1,7 C 4,8 km/h (1 Bft)
17.11.2017 11:00 23,4 C 1,9 C 53 % 97 % 1026,4 hPa 0,0 l/m 1,4 km/h (1 Bft) S 0,00 h 0,0 UV-I 36 W/m 1,4 C 1,9 C 3,3 km/h (1 Bft)
17.11.2017 12:00 23,3 C 2,2 C 51 % 97 % 1026,3 hPa 0,0 l/m 1,5 km/h (1 Bft) S 0,00 h 0,0 UV-I 51 W/m 1,7 C 2,2 C 3,5 km/h (1 Bft)
17.11.2017 13:00 23,3 C 2,4 C 51 % 97 % 1026,3 hPa 0,0 l/m 0,7 km/h (0 Bft) S 0,00 h 0,0 UV-I 33 W/m 2,0 C 2,4 C 1,7 km/h (1 Bft)
17.11.2017 14:00 23,4 C 2,6 C 53 % 97 % 1026,2 hPa 0,0 l/m 0,6 km/h (0 Bft) S 0,00 h 0,0 UV-I 17 W/m 2,2 C 2,6 C 1,5 km/h (1 Bft)
17.11.2017 15:00 23,4 C 2,6 C 53 % 97 % 1026,1 hPa 0,0 l/m 0,2 km/h (0 Bft) SO 0,00 h 0,0 UV-I 10 W/m 2,2 C 2,6 C 0,6 km/h (0 Bft)
17.11.2017 16:00 23,5 C 2,6 C 53 % 97 % 1026,1 hPa 0,0 l/m 0,0 km/h (0 Bft) N 0,00 h 0,0 UV-I 0 W/m 2,2 C 2,6 C 0,1 km/h (0 Bft)
17.11.2017 17:00 23,6 C 2,7 C 53 % 97 % 1026,1 hPa 0,0 l/m 0,0 km/h (0 Bft) N 0,00 h 0,0 UV-I 0 W/m 2,3 C 2,7 C 0,0 km/h (0 Bft)
17.11.2017 18:00 23,6 C 2,8 C 53 % 97 % 1026,1 hPa 0,0 l/m 0,0 km/h (0 Bft) N 0,00 h 0,0 UV-I 0 W/m 2,3 C 2,8 C 0,0 km/h (0 Bft)
17.11.2017 19:00 23,7 C 2,8 C 54 % 97 % 1026,0 hPa 0,0 l/m 0,0 km/h (0 Bft) N 0,00 h 0,0 UV-I 0 W/m 2,3 C 2,8 C 0,0 km/h (0 Bft)
17.11.2017 20:00 23,7 C 2,8 C 54 % 97 % 1025,7 hPa 0,0 l/m 0,0 km/h (0 Bft) N 0,00 h 0,0 UV-I 0 W/m 2,4 C 2,8 C 0,0 km/h (0 Bft)
17.11.2017 21:00 23,4 C 2,7 C 56 % 98 % 1025,7 hPa 0,0 l/m 0,0 km/h (0 Bft) N 0,00 h 0,0 UV-I 0 W/m 2,4 C 2,7 C 0,0 km/h (0 Bft)
17.11.2017 22:00 23,6 C 2,6 C 56 % 97 % 1025,7 hPa 0,0 l/m 0,0 km/h (0 Bft) N 0,00 h 0,0 UV-I 0 W/m 2,2 C 2,6 C 0,0 km/h (0 Bft)
17.11.2017 23:00 23,7 C 2,6 C 56 % 97 % 1025,3 hPa 0,0 l/m 0,0 km/h (0 Bft) N 0,00 h 0,0 UV-I 0 W/m 2,2 C 2,6 C 0,0 km/h (0 Bft)
18.11.2017 00:00 23,6 C 2,6 C 56 % 98 % 1024,8 hPa 0,2 l/m 0,5 km/h (0 Bft) S 0,00 h 0,0 UV-I 0 W/m 2,3 C 2,6 C 1,5 km/h (1 Bft)
18.11.2017 01:00 23,4 C 2,6 C 57 % 98 % 1024,2 hPa 0,4 l/m 0,0 km/h (0 Bft) S 0,00 h 0,0 UV-I 0 W/m 2,3 C 2,6 C 0,2 km/h (0 Bft)
18.11.2017 02:00 23,3 C 2,6 C 58 % 98 % 1024,0 hPa 0,0 l/m 0,0 km/h (0 Bft) N 0,00 h 0,0 UV-I 0 W/m 2,3 C 2,6 C 0,0 km/h (0 Bft)
18.11.2017 03:00 23,3 C 2,6 C 58 % 98 % 1023,4 hPa 0,0 l/m 0,0 km/h (0 Bft) S-SO 0,00 h 0,0 UV-I 0 W/m 2,3 C 2,6 C 0,4 km/h (0 Bft)
18.11.2017 04:00 23,2 C 2,7 C 58 % 98 % 1023,0 hPa 0,0 l/m 1,1 km/h (0 Bft) S 0,00 h 0,0 UV-I 0 W/m 2,4 C 2,7 C 2,7 km/h (1 Bft)
18.11.2017 05:00 23,1 C 2,8 C 59 % 98 % 1022,7 hPa 0,0 l/m 1,3 km/h (1 Bft) W-SW 0,00 h 0,0 UV-I 0 W/m 2,5 C 2,8 C 3,8 km/h (1 Bft)
18.11.2017 06:00 23,3 C 2,7 C 59 % 98 % 1022,3 hPa 0,0 l/m 0,8 km/h (0 Bft) SW 0,00 h 0,0 UV-I 0 W/m 2,4 C 2,7 C 2,2 km/h (1 Bft)
18.11.2017 07:00 23,6 C 2,6 C 57 % 98 % 1022,2 hPa 0,0 l/m 1,2 km/h (1 Bft) W-SW 0,00 h 0,0 UV-I 5 W/m 2,3 C 2,6 C 3,0 km/h (1 Bft)
18.11.2017 08:00 23,7 C 2,4 C 57 % 98 % 1022,2 hPa 0,0 l/m 0,1 km/h (0 Bft) S-SW 0,00 h 0,0 UV-I 24 W/m 2,1 C 2,4 C 0,5 km/h (0 Bft)
18.11.2017 09:00 23,2 C 2,7 C 54 % 98 % 1021,8 hPa 0,0 l/m 0,9 km/h (0 Bft) SW 0,05 h 0,5 UV-I 79 W/m 2,4 C 2,7 C 3,1 km/h (1 Bft)
18.11.2017 10:00 18,6 C 3,4 C 50 % 95 % 1021,4 hPa 0,0 l/m 3,2 km/h (1 Bft) SW 0,00 h 0,5 UV-I 62 W/m 2,7 C 3,0 C 7,5 km/h (2 Bft)
18.11.2017 11:00 18,1 C 3,3 C 53 % 90 % 1020,8 hPa 0,0 l/m 6,7 km/h (2 Bft) W-SW 0,00 h 0,5 UV-I 52 W/m 1,9 C 2,1 C 12,3 km/h (3 Bft)
18.11.2017 12:00 18,8 C 3,2 C 56 % 88 % 1020,1 hPa 0,0 l/m 7,7 km/h (2 Bft) W-SW 0,00 h 0,6 UV-I 60 W/m 1,5 C 1,6 C 14,1 km/h (3 Bft)
18.11.2017 13:00 22,0 C 3,2 C 57 % 83 % 1019,3 hPa 0,0 l/m 8,3 km/h (2 Bft) W-SW 0,00 h 0,4 UV-I 40 W/m 0,6 C 1,0 C 14,9 km/h (3 Bft)
18.11.2017 14:00 22,7 C 3,2 C 55 % 83 % 1018,7 hPa 0,0 l/m 9,4 km/h (2 Bft) W-SW 0,00 h 0,0 UV-I 24 W/m 0,6 C 0,5 C 16,0 km/h (3 Bft)
18.11.2017 15:00 23,0 C 3,3 C 55 % 84 % 1018,1 hPa 0,0 l/m 6,9 km/h (2 Bft) SW 0,00 h 0,0 UV-I 22 W/m 0,8 C 2,0 C 12,4 km/h (3 Bft)
18.11.2017 16:00 23,2 C 3,2 C 56 % 85 % 1017,6 hPa 0,2 l/m 6,8 km/h (2 Bft) SW 0,00 h 0,0 UV-I 0 W/m 0,9 C 2,0 C 12,8 km/h (3 Bft)
18.11.2017 17:00 23,4 C 3,1 C 59 % 84 % 1017,6 hPa 0,0 l/m 11,9 km/h (2 Bft) W-SW 0,00 h 0,0 UV-I 0 W/m 0,6 C -1,1 C 19,6 km/h (3 Bft)
18.11.2017 18:00 23,5 C 2,6 C 59 % 84 % 1017,5 hPa 0,0 l/m 12,4 km/h (3 Bft) W-SW 0,00 h 0,0 UV-I 0 W/m 0,2 C -2,1 C 18,8 km/h (3 Bft)
18.11.2017 19:00 23,6 C 2,5 C 58 % 84 % 1016,9 hPa 0,0 l/m 12,4 km/h (3 Bft) W-SW 0,00 h 0,0 UV-I 0 W/m 0,0 C -2,1 C 19,3 km/h (3 Bft)
18.11.2017 20:00 23,5 C 2,6 C 58 % 82 % 1016,8 hPa 0,0 l/m 11,0 km/h (2 Bft) W-SW 0,00 h 0,0 UV-I 0 W/m -0,1 C -1,1 C 18,2 km/h (3 Bft)
18.11.2017 21:00 23,6 C 2,5 C 58 % 85 % 1016,6 hPa 0,0 l/m 10,5 km/h (2 Bft) W-SW 0,00 h 0,0 UV-I 0 W/m 0,1 C -1,0 C 17,1 km/h (3 Bft)
18.11.2017 22:00 23,7 C 2,3 C 58 % 87 % 1016,3 hPa 0,0 l/m 7,7 km/h (2 Bft) SW 0,00 h 0,0 UV-I 0 W/m 0,4 C 0,7 C 13,7 km/h (3 Bft)
18.11.2017 23:00 23,7 C 1,8 C 59 % 92 % 1015,7 hPa 0,0 l/m 6,5 km/h (2 Bft) SW 0,00 h 0,0 UV-I 0 W/m 0,6 C 1,0 C 11,3 km/h (2 Bft)
19.11.2017 00:00 23,5 C 1,6 C 60 % 94 % 1015,0 hPa 0,0 l/m 5,4 km/h (1 Bft) SW 0,00 h 0,0 UV-I 0 W/m 0,7 C 1,0 C 10,3 km/h (2 Bft)
19.11.2017 01:00 23,3 C 1,4 C 60 % 94 % 1014,6 hPa 0,0 l/m 4,4 km/h (1 Bft) SW 0,00 h 0,0 UV-I 0 W/m 0,5 C 0,9 C 7,9 km/h (2 Bft)
19.11.2017 02:00 23,3 C 1,0 C 60 % 95 % 1014,0 hPa 0,0 l/m 2,2 km/h (1 Bft) SW 0,00 h 0,0 UV-I 0 W/m 0,2 C 1,0 C 4,6 km/h (1 Bft)
19.11.2017 03:00 23,3 C 0,8 C 61 % 95 % 1013,3 hPa 0,0 l/m 4,3 km/h (1 Bft) SW 0,00 h 0,0 UV-I 0 W/m 0,2 C 0,8 C 7,7 km/h (2 Bft)
19.11.2017 04:00 23,3 C 0,9 C 61 % 96 % 1012,8 hPa 0,2 l/m 4,3 km/h (1 Bft) SW 0,00 h 0,0 UV-I 0 W/m 0,3 C 0,7 C 8,3 km/h (2 Bft)
19.11.2017 05:00 23,3 C 0,9 C 61 % 96 % 1012,4 hPa 0,2 l/m 5,9 km/h (2 Bft) SW 0,00 h 0,0 UV-I 0 W/m 0,3 C -0,1 C 10,7 km/h (2 Bft)
19.11.2017 06:00 23,5 C 0,9 C 60 % 96 % 1012,4 hPa 0,2 l/m 7,1 km/h (2 Bft) W-SW 0,00 h 0,0 UV-I 0 W/m 0,3 C -0,2 C 12,6 km/h (3 Bft)
19.11.2017 07:00 23,6 C 1,0 C 60 % 96 % 1012,7 hPa 0,2 l/m 5,5 km/h (1 Bft) W-SW 0,00 h 0,0 UV-I 8 W/m 0,5 C 0,4 C 9,6 km/h (2 Bft)
19.11.2017 08:00 23,7 C 1,1 C 60 % 96 % 1012,9 hPa 0,0 l/m 4,0 km/h (1 Bft) W-SW 0,00 h 0,0 UV-I 34 W/m 0,5 C 0,8 C 7,8 km/h (2 Bft)
19.11.2017 09:00 24,4 C 2,0 C 60 % 95 % 1013,2 hPa 0,6 l/m 5,1 km/h (1 Bft) W 0,55 h 0,6 UV-I 165 W/m 1,2 C 1,3 C 10,4 km/h (2 Bft)
19.11.2017 10:00 25,0 C 2,7 C 58 % 88 % 1013,5 hPa 0,2 l/m 4,9 km/h (1 Bft) W-SW 0,13 h 0,6 UV-I 101 W/m 0,9 C 2,0 C 9,3 km/h (2 Bft)
19.11.2017 11:00 24,9 C 3,0 C 58 % 87 % 1013,8 hPa 0,0 l/m 11,5 km/h (2 Bft) W-SW 0,15 h 0,7 UV-I 113 W/m 1,0 C -1,0 C 18,3 km/h (3 Bft)
19.11.2017 12:00 24,9 C 3,1 C 57 % 87 % 1014,1 hPa 0,0 l/m 10,6 km/h (2 Bft) W-SW 0,35 h 0,7 UV-I 147 W/m 1,2 C -0,4 C 17,4 km/h (3 Bft)
19.11.2017 13:00 24,3 C 2,5 C 57 % 92 % 1014,3 hPa 0,2 l/m 9,9 km/h (2 Bft) W-SW 0,07 h 0,5 UV-I 83 W/m 1,3 C -0,5 C 15,4 km/h (3 Bft)
19.11.2017 14:00 24,2 C 2,5 C 58 % 93 % 1014,4 hPa 0,0 l/m 12,2 km/h (2 Bft) W-SW 0,00 h 0,0 UV-I 47 W/m 1,4 C -2,0 C 19,2 km/h (3 Bft)
19.11.2017 15:00 23,7 C 2,8 C 55 % 90 % 1014,7 hPa 0,0 l/m 10,3 km/h (2 Bft) W-SW 0,00 h 0,0 UV-I 15 W/m 1,3 C -0,4 C 17,5 km/h (3 Bft)
19.11.2017 16:00 23,4 C 2,7 C 50 % 91 % 1014,8 hPa 0,0 l/m 10,4 km/h (2 Bft) SW 0,00 h 0,0 UV-I 5 W/m 1,5 C -0,6 C 17,3 km/h (3 Bft)
19.11.2017 17:00 23,3 C 2,6 C 51 % 93 % 1015,1 hPa 0,0 l/m 9,2 km/h (2 Bft) W-SW 0,00 h 0,0 UV-I 0 W/m 1,6 C 0,0 C 15,0 km/h (3 Bft)
19.11.2017 18:00 22,7 C 2,8 C 55 % 92 % 1015,4 hPa 0,0 l/m 10,1 km/h (2 Bft) W-SW 0,00 h 0,0 UV-I 0 W/m 1,6 C -0,3 C 15,8 km/h (3 Bft)
19.11.2017 19:00 22,9 C 2,8 C 56 % 91 % 1015,9 hPa 0,0 l/m 9,1 km/h (2 Bft) W-SW 0,00 h 0,0 UV-I 0 W/m 1,5 C 0,4 C 13,4 km/h (3 Bft)
19.11.2017 20:00 23,3 C 2,9 C 56 % 90 % 1016,4 hPa 0,0 l/m 6,4 km/h (2 Bft) SW 0,00 h 0,0 UV-I 0 W/m 1,5 C 1,9 C 12,0 km/h (2 Bft)
19.11.2017 21:00 23,5 C 2,8 C 57 % 90 % 1016,7 hPa 0,0 l/m 8,8 km/h (2 Bft) SW 0,00 h 0,0 UV-I 0 W/m 1,4 C 0,5 C 15,1 km/h (3 Bft)
19.11.2017 22:00 23,5 C 2,7 C 57 % 90 % 1016,9 hPa 0,0 l/m 10,0 km/h (2 Bft) SW 0,00 h 0,0 UV-I 0 W/m 1,2 C -0,2 C 16,5 km/h (3 Bft)
19.11.2017 23:00 23,6 C 2,8 C 58 % 90 % 1017,2 hPa 0,0 l/m 12,5 km/h (3 Bft) W-SW 0,00 h 0,0 UV-I 0 W/m 1,3 C -1,8 C 19,8 km/h (4 Bft)
Min-Datum _ 15.11.17 14.11.17 15.11.17 16.11.17 13.11.17 - 13.11.17 - - - - 14.11.17 18.11.17 13.11.17
_ Min-Zeit 09:48 05:30 08:19 13:19 00:00 - 00:10 - - - - 05:33 17:50 00:10
Minimum _ 12,8 C -0,8 C 40 % 76 % 1004,3 hPa - 0,0 km/h (0 Bft) - - - - -1,4 C -8,3 C 0,0 km/h (0 Bft)
Max-Datum _ 19.11.17 16.11.17 15.11.17 17.11.17 15.11.17 19.11.17 18.11.17 - 13.11.17 14.11.17 19.11.17 16.11.17 16.11.17 18.11.17
_ Max-Zeit 09:54 13:12 10:00 21:10 09:59 09:21 17:50 - 09:34 11:44 12:10 11:30 13:12 17:50
Maximum _ 25,2 C 6,8 C 67 % 98 % 1029,6 hPa 0,6 l/m 27,4 km/h
W-SW (4 Bft)
- 0,02 h 1,3 UV-I 455 W/m 3,7 C 6,8 C 41,8 km/h
W (6 Bft)
Durchschnitt _ 22,9 C 2,2 C 57 % 94 % 1021,8 hPa #2,6 l/m 2,7 km/h (1 Bft) W-SW #8:14 h 0,7 UV-I 69 W/m 1,3 C 1,7 C 5,1 km/h (1 Bft)